QPF
0.00 0.00 0.00 0.00 0.00 0.00 0.00 0.00 0.00 0.00 0.00 0.00 0.00 0.00 0.00 0.00 0.00 0.00 0.00 0.00 0.00 0.00 0.00 0.00 0.00 0.00 0.00 0.00 0.00 0.00 0.00 0.00 0.00 0.00 0.00 0.00 0.00 0.00 0.00 0.00 0.00 0.00 0.00 0.00 0.00
0.00 0.00 0.00 0.00 0.00 0.00 0.00 0.00 0.00 0.00 0.00 0.00 0.00 0.00 0.00 0.00 0.00 0.00 0.00 0.00 0.00 0.00 0.00 0.00 0.00 0.00 0.00 0.00 0.00 0.00 0.00 0.00 0.00 0.00 0.00 0.00 0.00 0.00 0.00 0.00 0.00 0.00 0.00 0.00 0.00
0.00 0.00 0.00 0.00 0.00 0.00 0.00 0.00 0.00 0.00 0.00 0.00 0.00 0.00 0.00 0.00 0.00 0.00 0.00 0.00 0.00 0.00 0.00 0.00 0.00 0.00 0.00 0.00 0.00 0.00 0.00 0.00 0.00 0.00 0.00 0.00 0.00 0.00 0.00 0.00 0.00 0.00 0.00 0.00 0.00
0.00 0.00 0.00 0.00 0.00 0.00 0.00 0.00 0.00 0.00 0.00 0.00 0.00 0.00 0.00 0.00 0.00 0.00 0.00 0.00 0.00 0.00 0.00 0.00 0.00 0.00 0.00 0.00 0.00 0.00 0.00 0.00 0.00 0.00 0.00 0.00 0.00 0.00 0.00 0.00 0.00 0.00 0.00 0.00 0.00
0.00 0.00 0.00 0.00 0.00 0.00 0.00 0.00 0.00 0.00 0.00 0.00 0.00 0.00 0.00 0.00 0.00 0.00 0.00 0.00 0.00 0.00 0.00 0.00 0.00 0.00 0.00 0.00 0.00 0.00 0.00 0.00 0.00 0.00 0.00 0.00 0.00 0.00 0.00 0.00 0.00 0.00 0.00 0.00 0.00
0.00 0.00 0.00 0.00 0.00 0.00 0.00 0.00 0.00 0.00 0.00 0.00 0.00 0.00 0.00 0.00 0.00 0.00 0.00 0.00 0.00 0.00 0.00 0.00 0.00 0.00 0.00 0.00 0.00 0.00 0.00 0.00 0.00 0.00 0.00 0.00 0.00 0.00 0.00 0.00 0.00 0.00 0.00 0.00 0.00
0.00 0.00 0.00 0.00 0.00 0.00 0.00 0.00 0.00 0.00 0.00 0.00 0.00 0.00 0.00 0.00 0.00 0.00 0.00 0.00 0.00 0.00 0.00 0.00 0.00 0.00 0.00 0.00 0.00 0.00 0.00 0.00 0.00 0.00 0.00 0.00 0.00 0.00 0.00 0.00 0.00 0.00 0.00 0.00 0.00
0.00 0.00 0.00 0.00 0.00 0.00 0.00 0.00 0.00 0.00 0.00 0.00 0.00 0.00 0.00 0.00 0.00 0.00 0.00 0.00 0.00 0.00 0.00 0.00 0.00 0.00 0.00 0.00 0.00 0.00 0.00 0.00 0.00 0.00 0.00 0.00 0.00 0.00 0.00 0.00 0.00 0.00 0.00 0.00 0.00
0.00 0.00 0.00 0.00 0.00 0.00 0.00 0.00 0.00 0.00 0.00 0.00 0.00 0.00 0.00 0.00 0.00 0.00 0.00 0.00 0.00 0.00 0.00 0.00 0.00 0.00 0.00 0.00 0.00 0.00 0.00 0.00 0.00 0.00 0.00 0.00 0.00 0.00 0.00 0.00 0.00 0.00 0.00 0.00 0.00
0.00 0.00 0.00 0.00 0.00 0.00 0.00 0.00 0.00 0.00 0.00 0.00 0.00 0.00 0.00 0.00 0.00 0.00 0.00 0.00 0.00 0.00 0.00 0.00 0.00 0.00 0.00 0.00 0.00 0.00 0.00 0.00 0.00 0.00 0.00 0.00 0.00 0.00 0.00 0.00 0.00 0.00 0.00 0.00 0.00
0.00 0.00 0.00 0.00 0.00 0.00 0.00 0.00 0.00 0.00 0.00 0.00 0.00 0.00 0.00 0.00 0.00 0.00 0.00 0.00 0.00 0.00 0.00 0.00 0.00 0.00 0.00 0.00 0.00 0.00 0.00 0.00 0.00 0.00 0.00 0.00 0.00 0.00 0.00 0.00 0.00 0.00 0.00 0.00 0.00
0.00 0.00 0.00 0.00 0.00 0.00 0.00 0.00 0.00 0.00 0.00 0.00 0.00 0.00 0.00 0.00 0.00 0.00 0.00 0.00 0.00 0.00 0.00 0.00 0.00 0.00 0.00 0.00 0.00 0.00 0.00 0.00 0.00 0.00 0.00 0.00 0.00 0.00 0.00 0.00 0.00 0.00 0.00 0.00 0.00
0.00 0.00 0.00 0.00 0.00 0.00 0.00 0.00 0.00 0.00 0.00 0.00 0.00 0.00 0.00 0.00 0.00 0.00 0.00 0.00 0.00 0.00 0.00 0.00 0.00 0.00 0.00 0.00 0.00 0.00 0.00 0.00 0.00 0.00 0.00 0.00 0.00 0.00 0.00 0.00 0.00 0.00 0.00 0.00 0.00
0.00 0.00 0.00 0.00 0.00 0.00 0.00 0.00 0.00 0.00 0.00 0.00 0.00 0.00 0.00 0.00 0.00 0.00 0.00 0.00 0.00 0.00 0.00 0.00 0.00 0.00 0.00 0.00 0.00 0.00 0.00 0.00 0.00 0.00 0.00 0.00 0.00 0.00 0.00 0.00 0.00 0.00 0.00 0.00 0.00
0.00 0.00 0.00 0.00 0.00 0.00 0.00 0.00 0.00 0.00 0.00 0.00 0.00 0.00 0.00 0.00 0.00 0.00 0.00 0.00 0.00 0.00 0.00 0.00 0.00 0.00 0.00 0.00 0.00 0.00 0.00 0.00 0.00 0.00 0.00 0.00 0.00 0.00 0.00 0.00 0.00 0.00 0.00 0.00 0.00
0.00 0.00 0.00 0.00 0.00 0.00 0.00 0.00 0.00 0.00 0.00 0.00 0.00 0.00 0.00 0.00 0.00 0.00 0.00 0.00 0.00 0.00 0.00 0.00 0.00 0.00 0.00 0.00 0.00 0.00 0.00 0.00 0.00 0.00 0.00 0.00 0.00 0.00 0.00 0.00 0.00 0.00 0.00 0.00 0.00
0.00 0.00 0.00 0.00 0.00 0.00 0.00 0.00 0.00 0.00 0.00 0.00 0.00 0.00 0.00 0.00 0.00 0.00 0.00 0.00 0.00 0.00 0.00 0.00 0.00 0.00 0.00 0.00 0.00 0.00 0.00 0.00 0.00 0.00 0.00 0.00 0.00 0.00 0.00 0.00 0.00 0.00 0.00 0.00 0.00
0.00 0.00 0.00 0.00 0.00 0.00 0.00 0.00 0.00 0.00 0.00 0.00 0.00 0.00 0.00 0.00 0.00 0.00 0.00 0.00 0.00 0.00 0.00 0.00 0.00 0.00 0.00 0.00 0.00 0.00 0.00 0.00 0.00 0.00 0.00 0.00 0.00 0.00 0.00 0.00 0.00 0.00 0.00 0.00 0.00
0.00 0.00 0.00 0.00 0.00 0.00 0.00 0.00 0.00 0.00 0.00 0.00 0.00 0.00 0.00 0.00 0.00 0.00 0.00 0.00 0.00 0.00 0.00 0.00 0.00 0.00 0.00 0.00 0.00 0.00 0.00 0.00 0.00 0.00 0.00 0.00 0.00 0.00 0.00 0.00 0.00 0.00 0.00 0.00 0.00
0.00 0.00 0.00 0.00 0.00 0.00 0.00 0.00 0.00 0.00 0.00 0.00 0.00 0.00 0.00 0.00 0.00 0.00 0.00 0.00 0.00 0.00 0.00 0.00 0.00 0.00 0.00 0.00 0.00 0.00 0.00 0.00 0.00 0.00 0.00 0.00 0.00 0.00 0.00 0.00 0.00 0.00 0.00 0.00 0.00
0.00 0.00 0.00 0.00 0.00 0.00 0.00 0.00 0.00 0.00 0.00 0.00 0.00 0.00 0.00 0.00 0.00 0.00 0.00 0.00 0.00 0.00 0.00 0.00 0.00 0.00 0.00 0.00 0.00 0.00 0.00 0.00 0.00 0.00 0.00 0.00 0.00 0.00 0.00 0.00 0.00 0.00 0.00 0.00 0.00
0.00 0.00 0.00 0.00 0.00 0.00 0.00 0.00 0.00 0.00 0.00 0.00 0.00 0.00 0.00 0.00 0.00 0.00 0.00 0.00 0.00 0.00 0.00 0.00 0.00 0.00 0.00 0.00 0.00 0.00 0.00 0.00 0.00 0.00 0.00 0.00 0.00 0.00 0.00 0.00 0.00 0.00 0.00 0.00 0.00
0.00 0.00 0.00 0.00 0.00 0.00 0.00 0.00 0.00 0.00 0.00 0.00 0.00 0.00 0.00 0.00 0.00 0.00 0.00 0.00 0.00 0.00 0.00 0.00 0.00 0.00 0.00 0.00 0.00 0.00 0.00 0.00 0.00 0.00 0.00 0.00 0.00 0.00 0.00 0.00 0.00 0.00 0.00 0.00 0.00
0.00 0.00 0.00 0.00 0.00 0.00 0.00 0.00 0.00 0.00 0.00 0.00 0.00 0.00 0.00 0.00 0.00 0.00 0.00 0.00 0.00 0.00 0.00 0.00 0.00 0.00 0.00 0.00 0.00 0.00 0.00 0.00 0.00 0.00 0.00 0.00 0.00 0.00 0.00 0.00 0.00 0.00 0.00 0.00 0.00
0.00 0.00 0.00 0.00 0.00 0.00 0.00 0.00 0.00 0.00 0.00 0.00 0.00 0.00 0.00 0.00 0.00 0.00 0.00 0.00 0.00 0.00 0.00 0.00 0.00 0.00 0.00 0.00 0.00 0.00 0.00 0.00 0.00 0.00 0.00 0.00 0.00 0.00 0.00 0.00 0.00 0.00 0.00 0.00 0.00
0.00 0.00 0.00 0.00 0.00 0.00 0.00 0.00 0.00 0.00 0.00 0.00 0.00 0.00 0.00 0.00 0.00 0.00 0.00 0.00 0.00 0.00 0.00 0.00 0.00 0.00 0.00 0.00 0.00 0.00 0.00 0.00 0.00 0.00 0.00 0.00 0.00 0.00 0.00 0.00 0.00 0.00 0.00 0.00 0.00
0.00 0.00 0.00 0.00 0.00 0.00 0.00 0.00 0.00 0.00 0.00 0.00 0.00 0.00 0.00 0.00 0.00 0.00 0.00 0.00 0.00 0.00 0.00 0.00 0.00 0.00 0.00 0.00 0.00 0.00 0.00 0.00 0.00 0.00 0.00 0.00 0.00 0.00 0.00 0.00 0.00 0.00 0.00 0.00 0.00
MSLP
1021.90 1021.54 1021.14 1020.71 1020.30 1019.90 1019.49 1019.01 1018.52 1018.03 1017.55 1017.06 1016.56 1016.09 1015.62 1015.16 1014.51 1014.09 1013.41 1011.97 1011.81 1011.55 1011.54 1011.35 1011.04 1011.07 1011.21 1011.62 1011.76 1012.38 1013.63 1013.90 1013.05 1012.27 1011.36 1010.46 1010.16 1010.22 1010.28 1010.66 1011.06 1011.80 1012.54 1012.55 1013.57
1021.92 1021.52 1021.14 1020.72 1020.28 1019.81 1019.33 1018.83 1018.30 1017.78 1017.30 1016.81 1016.36 1015.96 1015.50 1015.14 1014.76 1013.52 1011.82 1011.56 1011.61 1011.48 1011.45 1011.51 1011.54 1011.56 1011.75 1011.90 1012.06 1012.59 1013.54 1013.13 1012.27 1011.89 1011.15 1010.55 1010.24 1010.30 1010.50 1011.07 1011.60 1012.12 1012.64 1012.80 1013.80
1021.95 1021.52 1021.07 1020.62 1020.12 1019.60 1019.08 1018.56 1018.05 1017.53 1017.04 1016.60 1016.17 1015.79 1015.36 1015.14 1014.46 1012.27 1011.42 1011.52 1011.54 1011.53 1011.48 1011.52 1011.59 1011.76 1012.04 1012.18 1012.25 1012.49 1012.83 1012.39 1011.62 1011.35 1010.95 1010.66 1010.52 1010.44 1010.64 1011.17 1011.45 1011.93 1013.06 1013.51 1013.92
1021.87 1021.39 1020.90 1020.42 1019.90 1019.31 1018.74 1018.20 1017.66 1017.16 1016.70 1016.34 1016.01 1015.62 1015.21 1015.06 1013.82 1011.76 1011.53 1011.60 1011.60 1011.53 1011.45 1011.58 1011.78 1012.12 1012.43 1012.57 1012.41 1012.54 1012.03 1012.00 1011.48 1011.11 1011.09 1010.70 1010.51 1010.65 1010.70 1010.61 1010.68 1011.31 1012.20 1013.23 1013.92
1021.75 1021.22 1020.68 1020.13 1019.56 1018.96 1018.35 1017.77 1017.21 1016.72 1016.31 1016.05 1015.77 1015.43 1015.12 1014.51 1012.88 1011.53 1011.62 1011.67 1011.64 1011.57 1011.70 1011.85 1012.13 1012.50 1012.74 1012.85 1012.60 1012.48 1012.10 1011.73 1011.29 1011.09 1010.87 1010.73 1010.70 1010.78 1010.57 1010.34 1010.86 1011.46 1012.45 1012.96 1013.45
1021.64 1021.05 1020.44 1019.83 1019.18 1018.58 1017.94 1017.30 1016.74 1016.29 1015.97 1015.73 1015.52 1015.38 1015.09 1013.66 1011.72 1011.53 1011.69 1011.77 1011.65 1011.58 1011.79 1011.89 1012.26 1012.37 1012.72 1012.84 1012.96 1012.53 1012.25 1011.90 1011.37 1011.08 1011.05 1010.87 1010.80 1010.92 1010.31 1009.98 1011.04 1011.62 1012.08 1012.52 1012.83
1021.52 1020.91 1020.21 1019.52 1018.79 1018.07 1017.39 1016.70 1016.22 1015.82 1015.55 1015.34 1015.20 1015.11 1014.48 1012.68 1011.66 1011.67 1011.65 1011.70 1011.55 1011.57 1011.82 1012.02 1012.23 1012.55 1012.80 1012.97 1012.77 1012.62 1012.63 1011.84 1011.18 1010.87 1011.08 1010.96 1011.12 1010.83 1009.95 1010.56 1011.16 1011.83 1012.05 1012.27 1012.16
1021.40 1020.74 1020.04 1019.24 1018.39 1017.56 1016.73 1015.95 1015.45 1015.10 1014.99 1014.90 1015.00 1014.90 1013.65 1011.95 1011.83 1011.76 1011.67 1011.67 1011.53 1011.53 1011.69 1011.88 1012.12 1012.59 1012.94 1012.97 1013.02 1013.17 1013.15 1012.73 1011.47 1011.31 1011.00 1011.31 1011.38 1010.72 1010.32 1010.88 1011.25 1011.46 1011.87 1011.85 1011.94
1021.33 1020.63 1019.91 1019.02 1018.09 1017.11 1016.19 1015.30 1014.63 1014.58 1014.71 1014.82 1015.07 1014.58 1013.19 1011.86 1011.84 1011.81 1011.73 1011.85 1011.75 1011.76 1011.80 1011.95 1012.35 1013.08 1013.31 1013.78 1014.11 1014.14 1013.96 1013.44 1012.46 1011.51 1011.43 1011.78 1011.79 1010.83 1010.68 1011.30 1011.45 1011.11 1011.43 1011.43 1011.52
1021.24 1020.51 1019.80 1018.88 1017.85 1016.68 1015.77 1014.86 1014.55 1014.51 1014.75 1014.69 1014.54 1014.59 1013.05 1012.63 1012.11 1011.88 1011.71 1011.74 1011.90 1012.06 1012.39 1012.67 1013.42 1013.87 1014.34 1014.55 1014.83 1014.55 1014.20 1013.68 1013.18 1012.31 1011.98 1012.25 1012.15 1011.88 1011.45 1011.56 1011.68 1011.34 1010.77 1011.23 1011.06
1021.08 1020.40 1019.66 1018.80 1017.86 1016.53 1015.83 1015.05 1015.42 1015.30 1015.08 1015.16 1014.83 1014.25 1013.51 1012.88 1012.33 1012.02 1011.80 1011.86 1012.13 1012.60 1013.28 1013.52 1014.29 1014.52 1014.34 1014.28 1014.05 1014.01 1014.01 1013.80 1012.97 1012.57 1012.57 1012.65 1013.09 1012.78 1012.12 1011.76 1011.96 1011.66 1011.15 1010.70 1010.62
1021.00 1020.27 1019.49 1018.63 1017.91 1016.75 1016.12 1016.90 1017.68 1017.68 1016.35 1014.89 1014.38 1013.86 1013.36 1013.04 1012.71 1012.20 1012.04 1012.48 1012.79 1013.29 1013.64 1014.17 1014.14 1013.53 1013.64 1013.61 1013.69 1013.75 1013.79 1013.68 1013.16 1012.81 1012.96 1013.36 1013.42 1013.24 1012.82 1012.97 1012.99 1012.51 1011.86 1011.12 1010.93
1020.90 1020.18 1019.35 1018.44 1017.67 1017.20 1017.25 1017.77 1017.64 1017.55 1016.95 1015.09 1014.11 1013.62 1013.27 1013.14 1012.89 1012.47 1012.40 1012.69 1013.06 1013.53 1013.87 1014.12 1013.36 1013.00 1013.16 1013.21 1013.34 1013.42 1013.60 1013.70 1013.88 1013.62 1013.48 1013.80 1014.20 1014.08 1013.57 1013.32 1013.11 1012.91 1012.65 1011.92 1011.65
1020.70 1020.01 1019.21 1018.23 1017.80 1018.07 1017.87 1017.73 1017.46 1017.44 1016.93 1015.42 1014.06 1013.44 1013.26 1013.18 1013.02 1012.54 1012.49 1012.91 1013.20 1013.61 1013.72 1013.84 1013.09 1012.97 1012.95 1012.99 1013.16 1013.35 1013.34 1013.67 1014.05 1014.41 1014.69 1014.40 1015.14 1014.83 1014.70 1014.37 1014.21 1014.10 1013.65 1013.26 1012.77
1020.49 1019.82 1019.20 1018.54 1018.76 1018.41 1018.21 1017.77 1017.40 1017.36 1016.74 1015.35 1013.90 1013.18 1013.26 1013.56 1013.31 1012.85 1012.73 1012.98 1013.57 1013.93 1014.35 1013.79 1013.29 1013.09 1013.02 1012.91 1012.99 1013.31 1013.47 1013.94 1014.26 1014.98 1015.45 1015.21 1015.41 1015.09 1015.02 1015.09 1015.26 1015.16 1014.79 1014.26 1013.67
1020.26 1019.59 1019.23 1018.93 1018.91 1018.15 1017.88 1017.66 1017.74 1017.44 1016.63 1015.33 1014.18 1013.75 1013.80 1013.60 1013.44 1013.27 1013.33 1013.47 1013.88 1014.27 1014.42 1014.14 1013.37 1013.10 1012.92 1012.88 1013.08 1013.35 1013.83 1014.45 1015.06 1015.59 1016.01 1015.10 1015.24 1015.50 1015.24 1015.36 1015.72 1015.76 1015.59 1015.24 1014.70
1019.85 1019.14 1018.90 1018.91 1018.59 1017.90 1017.83 1017.98 1018.06 1017.58 1017.22 1016.57 1015.58 1015.05 1014.90 1014.35 1014.05 1014.06 1014.42 1015.02 1015.52 1015.61 1015.57 1014.64 1013.89 1013.35 1013.12 1013.25 1013.33 1013.85 1014.84 1015.44 1015.97 1016.21 1015.74 1015.10 1015.38 1015.41 1015.30 1015.64 1015.98 1016.30 1016.19 1015.91 1015.57
1019.57 1018.90 1018.70 1018.24 1017.88 1017.98 1018.09 1018.30 1018.51 1018.99 1018.24 1017.34 1016.69 1016.07 1015.78 1015.27 1015.02 1015.12 1015.89 1016.84 1016.88 1016.94 1016.85 1016.26 1014.78 1013.95 1013.65 1013.71 1013.95 1014.25 1015.02 1015.89 1016.24 1016.48 1016.04 1015.28 1015.65 1015.88 1015.99 1016.21 1016.56 1016.79 1016.82 1016.44 1016.20
1019.36 1019.24 1018.77 1017.98 1017.65 1017.79 1018.25 1019.34 1020.33 1019.83 1019.34 1018.59 1017.60 1017.29 1017.05 1016.46 1016.57 1016.69 1017.88 1018.64 1018.60 1018.37 1018.06 1017.27 1015.84 1014.44 1013.97 1013.85 1014.21 1014.62 1015.07 1015.46 1016.09 1016.57 1016.58 1016.34 1016.40 1016.86 1017.08 1017.13 1017.29 1017.63 1017.57 1017.53 1017.29
1020.37 1019.92 1018.90 1017.69 1017.44 1017.97 1018.82 1020.43 1020.60 1020.23 1019.85 1019.35 1019.13 1018.80 1018.61 1018.21 1017.98 1018.13 1019.18 1019.88 1019.69 1019.26 1019.07 1018.53 1017.35 1015.45 1014.59 1014.32 1014.42 1014.60 1015.13 1015.76 1016.56 1017.13 1017.28 1017.18 1017.33 1018.26 1018.26 1018.39 1018.52 1018.68 1018.74 1018.51 1018.23
1020.40 1020.16 1018.40 1017.70 1017.57 1018.65 1020.57 1021.16 1020.91 1020.74 1020.45 1020.27 1020.19 1020.12 1019.96 1019.74 1019.60 1019.72 1020.38 1020.63 1020.35 1019.82 1019.17 1019.15 1018.72 1016.92 1015.78 1015.30 1015.08 1015.18 1015.31 1015.97 1016.77 1017.35 1017.82 1018.29 1019.04 1018.98 1019.25 1019.18 1019.40 1019.63 1019.57 1019.27 1019.08
1021.53 1020.96 1018.87 1017.97 1019.38 1020.98 1021.95 1021.79 1021.67 1021.50 1021.22 1021.02 1020.94 1021.16 1021.17 1020.93 1020.75 1020.64 1020.92 1021.07 1020.80 1020.60 1020.35 1020.07 1019.64 1018.80 1017.31 1016.13 1015.78 1015.72 1015.83 1016.39 1017.29 1018.00 1018.38 1018.86 1020.04 1020.02 1020.15 1020.07 1020.19 1020.34 1020.18 1020.01 1019.67
1023.00 1022.10 1019.74 1019.23 1022.01 1023.05 1022.81 1022.85 1022.87 1022.55 1022.63 1022.39 1022.55 1022.48 1022.34 1022.20 1022.10 1021.60 1021.89 1021.83 1021.57 1021.34 1021.17 1020.92 1020.67 1020.08 1018.50 1017.52 1016.84 1016.89 1017.04 1017.29 1017.62 1018.16 1018.63 1019.60 1020.85 1020.81 1020.81 1021.04 1021.23 1021.16 1021.03 1020.75 1020.29
1023.83 1023.94 1023.13 1023.07 1024.48 1024.20 1024.21 1024.33 1023.98 1023.76 1023.83 1023.85 1024.07 1023.78 1023.78 1023.51 1023.52 1023.44 1023.36 1022.79 1022.50 1022.29 1021.76 1021.52 1021.68 1021.48 1020.78 1020.14 1019.85 1019.07 1018.67 1018.58 1018.63 1019.21 1019.49 1019.83 1021.20 1021.76 1022.01 1022.22 1022.07 1021.87 1021.62 1021.29 1020.87
1024.77 1026.25 1026.30 1026.66 1026.02 1025.73 1025.42 1025.84 1025.40 1025.16 1024.91 1024.86 1025.22 1025.68 1025.68 1025.17 1025.01 1025.16 1025.12 1024.43 1023.61 1023.41 1023.00 1023.25 1023.20 1022.61 1021.95 1021.28 1020.75 1020.33 1019.95 1019.70 1019.90 1019.82 1020.23 1020.82 1021.85 1022.77 1022.90 1022.92 1022.83 1022.59 1022.12 1021.73 1021.46
1026.08 1026.87 1026.97 1027.29 1027.03 1026.63 1026.87 1027.40 1026.99 1026.32 1026.22 1026.33 1026.49 1026.43 1026.40 1026.56 1026.87 1026.78 1026.53 1025.96 1025.25 1024.87 1024.70 1024.77 1024.22 1023.95 1023.03 1022.16 1021.57 1021.14 1021.14 1020.72 1020.55 1020.43 1020.81 1021.59 1023.08 1023.41 1023.59 1023.25 1023.09 1022.80 1022.37 1022.12 1021.89
1026.77 1027.02 1027.38 1028.56 1028.07 1027.88 1028.39 1028.17 1027.88 1027.17 1027.09 1027.04 1027.05 1026.95 1026.80 1026.88 1026.91 1026.69 1026.50 1026.29 1026.14 1026.26 1026.19 1026.04 1025.51 1025.15 1024.28 1023.31 1022.33 1022.44 1022.44 1022.13 1022.34 1022.14 1022.15 1022.81 1023.87 1023.81 1023.68 1023.38 1022.97 1022.80 1022.69 1022.45 1022.09
Thickness
5687 5689 5691 5693 5695 5696 5698 5701 5704 5707 5710 5712 5715 5718 5720 5723 5728 5730 5729 5743 5744 5746 5745 5744 5743 5739 5737 5727 5731 5722 5685 5677 5695 5699 5705 5722 5721 5730 5736 5729 5732 5734 5729 5740 5739
5686 5689 5691 5693 5695 5697 5700 5703 5706 5710 5712 5715 5717 5720 5722 5724 5726 5729 5747 5747 5746 5746 5742 5734 5728 5729 5717 5720 5719 5703 5678 5690 5707 5709 5710 5717 5717 5721 5721 5720 5720 5724 5729 5736 5732
5686 5689 5692 5694 5697 5700 5702 5705 5708 5712 5714 5717 5719 5722 5724 5725 5726 5738 5750 5748 5746 5745 5743 5739 5733 5726 5715 5715 5712 5704 5687 5701 5710 5713 5714 5712 5711 5715 5710 5709 5719 5721 5719 5725 5727
5685 5689 5692 5696 5699 5702 5705 5709 5712 5714 5716 5718 5720 5722 5725 5724 5712 5745 5749 5747 5745 5745 5741 5733 5725 5714 5705 5702 5710 5698 5706 5707 5710 5715 5710 5708 5712 5704 5710 5719 5733 5731 5729 5725 5723
5684 5689 5693 5697 5701 5705 5709 5712 5716 5718 5720 5720 5721 5723 5725 5723 5727 5749 5747 5746 5745 5743 5733 5727 5716 5709 5698 5701 5704 5701 5707 5710 5711 5708 5709 5712 5705 5703 5710 5723 5730 5727 5725 5725 5725
5683 5688 5693 5698 5703 5707 5712 5716 5719 5721 5722 5722 5722 5723 5723 5717 5748 5748 5746 5744 5742 5738 5731 5728 5719 5718 5708 5704 5699 5705 5704 5701 5708 5707 5705 5705 5704 5707 5714 5727 5720 5723 5724 5726 5728
5682 5688 5694 5699 5705 5711 5716 5720 5723 5725 5726 5726 5725 5725 5724 5727 5747 5746 5745 5742 5743 5738 5727 5729 5726 5716 5711 5702 5710 5707 5694 5698 5706 5709 5705 5705 5694 5699 5718 5721 5720 5718 5721 5726 5732
5681 5687 5693 5700 5707 5713 5720 5726 5729 5730 5730 5729 5726 5725 5721 5746 5745 5744 5743 5739 5742 5741 5735 5733 5729 5718 5711 5712 5701 5695 5688 5674 5702 5701 5707 5702 5675 5704 5715 5715 5717 5720 5722 5727 5730
5679 5685 5692 5699 5707 5715 5722 5729 5734 5733 5730 5728 5725 5724 5722 5746 5738 5741 5741 5732 5734 5735 5734 5733 5724 5708 5705 5689 5676 5677 5669 5678 5683 5705 5702 5696 5683 5706 5714 5710 5711 5720 5719 5727 5731
5679 5685 5691 5699 5707 5716 5723 5731 5732 5731 5728 5727 5727 5718 5730 5724 5735 5738 5740 5736 5728 5725 5718 5715 5698 5688 5681 5674 5660 5673 5674 5677 5674 5693 5698 5690 5682 5694 5703 5705 5706 5715 5726 5723 5730
5679 5684 5691 5697 5705 5716 5722 5727 5718 5719 5719 5714 5714 5715 5721 5729 5735 5732 5735 5729 5724 5713 5694 5701 5683 5675 5685 5685 5686 5687 5680 5674 5681 5695 5689 5685 5677 5684 5695 5702 5701 5704 5714 5722 5728
5677 5684 5690 5697 5703 5712 5716 5707 5698 5698 5701 5716 5716 5718 5723 5725 5715 5724 5732 5713 5708 5693 5699 5686 5677 5694 5695 5697 5693 5687 5679 5671 5680 5692 5687 5677 5679 5683 5690 5695 5693 5699 5709 5717 5724
5676 5681 5688 5695 5701 5704 5702 5696 5697 5697 5691 5705 5715 5714 5716 5719 5709 5713 5721 5712 5702 5694 5692 5680 5695 5707 5702 5695 5688 5684 5678 5675 5673 5677 5683 5680 5670 5669 5688 5689 5693 5694 5699 5708 5713
5673 5678 5685 5692 5695 5691 5692 5692 5694 5693 5680 5693 5703 5709 5712 5712 5702 5720 5720 5710 5701 5693 5695 5688 5703 5701 5696 5690 5688 5675 5688 5684 5679 5663 5650 5673 5642 5666 5669 5674 5678 5678 5685 5691 5698
5670 5675 5680 5685 5681 5683 5685 5688 5690 5686 5669 5693 5697 5714 5708 5698 5701 5705 5715 5706 5690 5689 5687 5683 5693 5691 5687 5689 5693 5678 5688 5681 5678 5661 5655 5657 5641 5653 5666 5665 5666 5668 5675 5683 5690
5668 5673 5674 5676 5676 5680 5682 5683 5681 5675 5662 5680 5693 5692 5689 5694 5696 5700 5698 5702 5698 5687 5683 5679 5696 5694 5688 5691 5690 5689 5679 5664 5655 5647 5634 5654 5648 5646 5656 5666 5664 5663 5665 5670 5676
5666 5671 5672 5670 5670 5676 5677 5674 5667 5653 5670 5663 5669 5674 5672 5680 5685 5686 5680 5668 5661 5661 5660 5670 5680 5686 5689 5677 5681 5670 5651 5637 5645 5635 5641 5658 5648 5645 5662 5661 5658 5656 5658 5661 5665
5663 5668 5668 5670 5672 5671 5667 5664 5652 5649 5645 5660 5662 5661 5664 5673 5676 5675 5659 5645 5652 5651 5643 5641 5651 5672 5676 5671 5664 5663 5650 5630 5642 5630 5640 5655 5633 5641 5652 5650 5649 5649 5650 5655 5657
5660 5660 5662 5667 5669 5667 5659 5633 5630 5635 5639 5640 5650 5648 5645 5656 5656 5651 5633 5626 5633 5634 5638 5629 5643 5666 5669 5668 5663 5654 5641 5650 5637 5631 5624 5631 5638 5637 5636 5638 5638 5636 5638 5639 5643
5647 5648 5654 5664 5665 5659 5646 5630 5630 5633 5632 5634 5628 5633 5627 5632 5637 5636 5622 5618 5619 5627 5624 5626 5620 5649 5656 5659 5655 5650 5647 5633 5618 5624 5626 5620 5620 5607 5623 5623 5624 5621 5620 5624 5629
5640 5642 5653 5658 5657 5641 5619 5619 5624 5625 5622 5622 5617 5618 5617 5615 5617 5616 5606 5608 5611 5615 5619 5612 5612 5626 5640 5638 5636 5630 5626 5629 5619 5610 5608 5600 5595 5608 5609 5612 5609 5609 5609 5611 5615
5621 5628 5643 5648 5626 5601 5604 5613 5612 5608 5610 5610 5611 5606 5603 5603 5605 5607 5601 5599 5602 5602 5600 5601 5595 5597 5614 5626 5630 5632 5629 5617 5602 5611 5598 5587 5580 5591 5590 5593 5596 5597 5600 5602 5604
5602 5604 5629 5631 5597 5587 5604 5599 5593 5594 5590 5593 5589 5590 5590 5590 5589 5598 5589 5591 5589 5588 5583 5586 5579 5578 5597 5607 5611 5609 5613 5610 5602 5594 5597 5582 5569 5581 5578 5577 5577 5580 5582 5588 5594
5586 5586 5587 5589 5573 5584 5585 5577 5581 5578 5576 5576 5569 5573 5569 5572 5572 5571 5567 5575 5573 5573 5577 5575 5568 5568 5570 5576 5574 5581 5584 5590 5590 5576 5580 5580 5562 5562 5560 5557 5559 5560 5567 5573 5578
5570 5559 5559 5549 5558 5557 5563 5560 5558 5554 5560 5557 5551 5544 5542 5549 5544 5541 5538 5543 5558 5556 5555 5545 5546 5554 5558 5559 5561 5564 5568 5571 5570 5576 5571 5568 5548 5540 5542 5542 5543 5546 5553 5558 5563
5551 5547 5545 5538 5544 5544 5537 5530 5534 5540 5540 5535 5531 5531 5527 5522 5517 5512 5516 5522 5526 5526 5526 5519 5525 5522 5533 5545 5546 5551 5541 5548 5555 5559 5560 5541 5523 5523 5524 5527 5529 5529 5537 5539 5543
5539 5537 5534 5523 5522 5522 5516 5521 5519 5526 5526 5524 5520 5515 5514 5514 5512 5509 5507 5509 5508 5501 5498 5499 5500 5498 5502 5516 5529 5524 5515 5520 5516 5520 5522 5506 5508 5511 5512 5516 5519 5522 5520 5523 5527